Погода в Старых Туймазах

Россия / Республика Башкортостан     54°32′47″N   53°36′27″E
темп.,
°C
ветер,
м/с
пор.,
м/с
влажн.,
%
обл.,
%
осадки,
мм/ч
давл.,
гПа
погр.,
м
15 мая, сб
сб1523:00+19ю335351 0.0 102320
02:00+17ю33574 0.1 102231
05:00+16ю33595 0.1 102237
08:00+19ю310545 0.0 1023270
11:00+25ююз58342 0.0 1023588
14:00+28юз67285 0.0 10221215
17:00+29юз57304 0.0 10221563
20:00+25ю34455 0.0 102174
16 мая, вс
вс1623:00+19ю33505 0.0 102125
02:00+18ю22525 0.0 102116
05:00+17ю22500 0.0 102115
08:00+20ю25490 0.0 1021159
11:00+26ююз57340 0.0 1021592
14:00+29юз56263 0.0 10202938
17:00+29юз56285 0.0 10203206
20:00+26ю22441 0.0 101920
17 мая, пн
пн1723:00+20ю224644 0.0 101916
02:00+19ююз344982 0.0 101967
05:00+19ю375280 0.1 1020162
08:00+20ю385798 0.0 1020181
11:00+26юз564095 0.0 1021633
14:00+29юз453061 0.0 10201813
17:00+29зюз442894 0.0 10193128
20:00+26зюз2245100 0.0 101912
18 мая, вт
вт1823:00+21юз3452100 0.0 102056
02:00+18ююз3360100 0.0 102033
05:00+18ю2259100 0.0 101911
08:00+22юз2252100 0.0 1019111
11:00+26юз223899 0.0 1019662
14:00+29зюз233379 0.0 10182135
17:00+29з333162 0.0 10172593
20:00+25вюв0148100 0.0 101716
19 мая, ср
ср1923:00+21в1154100 0.0 101711
02:00+19ю2256100 0.0 101711
05:00+17ююв016244 0.0 101711
08:00+21ю00546 0.0 101783
11:00+27всв234124 0.0 1017821
14:00+29вюв343372 0.0 10162704
17:00+28ююв563732 0.0 10152123
20:00+17ююз2781100 2.3 1016141